Location: DaVinci Observatory
(43.1080°N, 78.6453°W)
Time: 17:48:46
(UTC-04:00)

Tiangong 1 - Pass Details

Date: 14 October 2017
Orbit: 293 x 320 km, 42.8° (Epoch: 20 October)

Event Time Altitude Azimuth Distance (km) Brightness Sun altitude
Rises 20:03:55 0° 276° (W) 2,041 6.5 -17.4°
Reaches altitude 10° 20:06:05 10° 263° (W) 1,204 4.8 -17.8°
Maximum altitude 20:08:22 25° 204° (SSW) 678 2.5 -18.2°
Enters shadow 20:08:38 24° 194° (SSW) 686 2.4 -18.2°
